Terug naar catalogus

COSMOS 2251 DEB

ActiefLEO
NORAD 33764·DEBRIS·🇷🇺 Russia

Gelanceerd Jun 16, 1993 vanaf Plesetsk Cosmodrome

Loading…

Volgende Passages (komende 24 uur)

TLE

VersSource: Space-Track

Epoch: Sep 14, 2026, 10:00 UTC

1 33764U 93036M   26257.41727787  .00000489  00000-0  16318-3 0  9992
2 33764  74.0323 123.3864 0021588  18.7434 155.1826 14.39970816921246

Volg COSMOS 2251 DEB in realtime met AllMySat

Download on the App Store